ONEWEB-0013, 45131

Orbit data source: Space-Track

ONEWEB-0013, 45131 is a payload satellite owned by One Web (UK) in LEO that was launched on Thu, 06 Feb 2020 UTC via a SOYUZ-2-1B launch vehicle from the Tyuratam Missile And Space Complex (TTMTR). Payload-class satellites include a variety of spacecraft equipped with specific instruments for various scientific and technological missions. These include communications satellites like Starlink; space stations such as the ISS; scientific satellites like the Hubble; Earth observation satellites from companies like Planet Labs, Umbra, and HawkEye 360; GPS; miniature CubeSats for education and research; and military/defense satellites.

Loading next visibility...
Identifier
45131, 2020-008A
Orbit
LEO
Country
Flag of UKUK
Related business
Manufacturer
One Web
Mission
Operational Commercial Communications
Bus & Motor
ARROW, Unknown motor
Mass
148 kg wet, ~140 kg dry
Launch date (UTC)
2020-02-06 (6 years ago)
Launch vehicle
SOYUZ-2-1B
Launch site
Tyuratam Missile And Space Complex (TTMTR)
Object type
Payload
Rocket body
Debris
Shape & HBR
Trap Box + 2 Pan, 6.7 m
Radar Cross Section
3.464 m², Large (>1 m²)

Expand to show TLE details & history
Last TLE update: 13 hours ago

TLE from 13 hours ago
0 ONEWEB-0013
1 45131U 20008A   25347.26135133 -.00000036  00000-0 -14063-3 0  9997
2 45131  87.8519  90.3786 0002451 118.6496 241.4878 13.09445534281737
Epoch: 2025-12-13T06:16Z
TLE epoch observation values (Epoch: 2025-12-13T06:16:20.754Z)
Latitude
0.00001°
Longitude
-85.89903°
Altitude
1,229.081 km
Speed
7.24 km/s
True Right ascension
06h 01m 30s
True Declination
0° 00' 00"
Sunlit
Object was in full shadow at epoch
Visualization orbit readout
Latitude
Unknown
Longitude
Unknown
Altitude
Unknown
Speed
Unknown
Apparent Right ascension
Unknown
Apparent Declination
Unknown
Sunlit
N/A
Visualization observer readout
Local Sidereal Time
17:33:09
Azimuth
Unknown
Elevation
Unknown
Doppler factor
Unknown
Orbital elements
Apogee altitude
1,224.289 km
Perigee altitude
1,220.563 km
Semi-major axis
7,600.563 km
Eccentricity
0.00025
Inclination
87.8519°
RAAN
90.3786°
Arg. of periapsis
118.6496°
True anomaly
241.46312°
Mean anomaly
241.4878°
Eccentric anomaly
241.47546°
Mean motion
3.27548 °/min
Orbital period
109.91 mins
BSTAR
-0.00014063
Loading maneuver chart data...
Computing Atmospheric mass density...
Loading historical data...
Loading historical data...
Loading historical data...
Loading historical data...
Loading historical data...
Loading historical data...
Loading historical data...

Documentation

Showing up to 5 results
|